Home > Weather > Egersund > Past weeks

Flag for Norway Weather for the Past 2 Weeks in Egersund, Norway

Now
43 °F

Clear.


Feels Like: 39 °F
Forecast: 44 / 54 °F
Wind: 7 mph from Southeast

Location: Stavanger / Sola

Current Time: May 4, 2016 at 8:23:05 AM

Latest Report: May 4, 2016 at 7:20 AM


Visibility: N/A

Pressure: 30.27 "Hg

Humidity: 87%

Dew Point: 39 °F

Location of EgersundLocation

Historic Weather in Egersund — Graph

°F

Egersund Temperature Yesterday

Maximum temperature yesterday: 50 °F (at 11:50 AM)
Minimum temperature yesterday: 45 °F (at 11:50 PM)
Average temperature yesterday: 48 °F

High & Low Weather Summary for the Past Weeks

 TemperatureHumidityPressure
High52 °F (Apr 26, 4:20 PM)100% (Apr 29, 3:50 AM)30.39 "Hg (Apr 29, 3:50 AM)
Low30 °F (Apr 25, 5:50 AM)29% (Apr 26, 12:20 PM)29.50 "Hg (Apr 25, 12:50 PM)
Average44 °F70%29.94 "Hg
* Reported Apr 19 6:20 AM — May 4 6:20 AM, Egersund, Weather by CustomWeather, © 2016

Note: Actual official high and low records may vary slightly from our data, if they occured in-between our weather recording intervals... More about our weather records

Advertising

Egersund Weather History for the Previous 24 Hours

Scroll right to see more
 ConditionsComfort  
Time TempWeatherWind HumidityBarometerVisibility
6:20 AM
Wed, May 4
41 °FClear.8 mph93%30.24 "Hg10 mi
5:50 AM43 °FPassing clouds.8 mph87%30.24 "HgN/A
4:50 AM43 °FPassing clouds.7 mph93%30.24 "HgN/A
3:50 AM41 °FPassing clouds.6 mph93%30.21 "HgN/A
2:50 AM43 °FPassing clouds.6 mph93%30.21 "HgN/A
1:50 AM43 °FPassing clouds.7 mph93%30.21 "HgN/A
12:50 AM43 °FPassing clouds.6 mph93%30.18 "HgN/A
11:50 PM
Tue, May 3
45 °FPassing clouds.7 mph87%30.18 "HgN/A
10:50 PM46 °FPassing clouds.7 mph82%30.15 "HgN/A
10:20 PM46 °FPartly sunny.9 mph82%30.15 "HgN/A
9:50 PM48 °FPartly sunny.8 mph76%30.12 "HgN/A
9:20 PM48 °FPartly sunny.8 mph71%30.12 "HgN/A
8:50 PM48 °FPartly sunny.9 mph71%30.12 "HgN/A
8:20 PM48 °FScattered clouds.7 mph71%30.09 "HgN/A
7:50 PM48 °FScattered clouds.9 mph76%30.09 "HgN/A
7:20 PM48 °FScattered clouds.9 mph76%30.09 "HgN/A
6:50 PM50 °FScattered clouds.12 mph71%30.09 "HgN/A
6:20 PM50 °FScattered clouds.9 mph67%30.07 "HgN/A
5:50 PM50 °FScattered clouds.13 mph67%30.07 "HgN/A
5:20 PM50 °FScattered clouds.12 mph67%30.07 "HgN/A
4:50 PM50 °FScattered clouds.12 mph67%30.04 "HgN/A
4:20 PM50 °FScattered clouds.14 mph71%30.04 "HgN/A
3:50 PM50 °FScattered clouds.16 mph71%30.04 "HgN/A
3:20 PM50 °FScattered clouds.15 mph71%30.01 "HgN/A
2:50 PM50 °FScattered clouds.15 mph71%30.01 "HgN/A
2:20 PM50 °FScattered clouds.14 mph76%29.98 "HgN/A
1:20 PM50 °FBroken clouds.13 mph76%29.95 "HgN/A
12:50 PM50 °FBroken clouds.10 mph82%29.95 "HgN/A
12:20 PM48 °FBroken clouds.7 mph82%29.95 "HgN/A
11:50 AM50 °FBroken clouds.3 mph82%29.92 "HgN/A
10:50 AM46 °FBroken clouds.9 mph93%29.92 "HgN/A
10:20 AM48 °FBroken clouds.8 mph82%29.89 "HgN/A
9:50 AM48 °FBroken clouds.8 mph82%29.86 "HgN/A
9:20 AM46 °FBroken clouds.8 mph87%29.86 "HgN/A
8:50 AM46 °FBroken clouds.8 mph93%29.86 "HgN/A
8:20 AM46 °FBroken clouds.7 mph93%29.86 "HgN/A
Weather by CustomWeather, © 2016

See weather overviewHow to use our weather pages